Vorticity
-5 20 -2 15 5 12 19 26 18 6 4 9 13 20 17 10 12 19 32 23 10 13 0 -7 20 12 7 2 7 4 12 3 5 6 8 9 5 20 19 18 25 36 28 9
-13 32 -1 -39 8 3 7 21 5 2 3 9 14 16 20 14 12 8 17 33 30 16 15 17 38 7 -10 -18 7 -5 -4 4 16 -3 5 -2 4 6 7 15 17 18 19 -3
-7 25 18 -19 -2 8 4 7 9 1 8 9 13 15 20 20 17 11 12 7 7 30 32 25 19 35 54 11 29 14 25 -2 4 13 -1 4 1 8 13 15 19 -6 -0 10
11 55 7 -7 -5 10 8 5 13 11 10 5 12 8 16 18 18 16 14 12 11 9 6 19 18 21 19 28 51 37 18 10 14 21 6 11 11 17 7 17 16 10 12 30
16 13 -2 -19 -1 8 11 -5 9 9 15 13 17 8 14 14 21 23 18 14 14 15 15 13 9 12 7 8 5 -5 6 13 13 17 16 15 12 9 9 10 -5 19 12 8
17 16 6 -4 9 18 20 -20 10 8 11 15 13 11 8 10 10 15 21 23 18 14 13 14 12 13 14 10 13 11 15 13 8 10 6 5 4 8 8 2 21 26 17 20
13 13 10 -4 5 25 22 -17 7 9 13 11 14 11 9 8 7 8 9 13 15 19 19 18 14 11 14 14 12 11 12 13 12 10 0 6 12 14 13 15 8 5 8 11
10 10 20 -16 7 10 4 6 9 8 15 11 8 9 10 11 11 10 7 7 9 10 13 16 16 15 16 17 17 17 15 17 16 17 17 22 13 8 6 8 9 11 10 13
11 -8 3 13 18 4 3 5 7 7 10 13 9 9 8 9 11 12 13 13 11 8 9 11 11 13 15 16 19 20 20 17 17 14 14 14 14 14 13 14 14 15 18 17
14 -10 11 7 16 22 8 3 3 5 8 11 9 9 7 7 7 8 11 11 11 13 13 12 13 13 13 10 9 9 11 14 17 19 19 20 20 18 19 18 17 13 12 10
6 20 5 10 9 9 21 19 5 4 3 6 9 10 7 4 6 6 6 7 9 9 9 10 11 11 11 13 14 15 13 13 13 12 11 10 11 12 11 10 14 19 18 20
5 10 10 12 12 9 8 14 23 14 6 3 4 7 10 8 6 4 4 4 5 7 9 10 9 9 10 9 9 9 10 11 12 15 17 17 15 17 19 17 12 8 6 2
8 10 9 10 11 15 16 9 9 14 23 17 8 4 4 7 10 9 5 2 3 5 5 6 9 10 11 11 9 8 8 8 7 8 9 8 10 10 10 11 10 11 10 8
9 11 11 10 11 11 11 12 16 15 11 11 20 22 15 7 4 6 8 8 9 9 8 7 7 6 10 10 10 11 10 10 11 9 8 9 10 10 9 7 7 8 7 6
9 10 8 9 8 7 7 8 9 12 14 17 18 12 13 20 20 12 6 4 5 7 9 9 10 9 8 7 12 12 14 10 4 6 8 7 7 7 7 7 7 7 7 6
10 8 8 8 7 7 7 5 4 4 6 6 7 13 19 17 12 13 20 17 10 4 4 4 8 9 9 9 7 7 13 9 6 6 5 6 5 5 5 5 6 5 5 6
13 8 5 8 8 9 9 4 3 2 3 3 4 5 10 12 16 17 14 12 13 18 19 11 3 4 4 8 9 8 7 5 5 5 5 4 5 5 4 4 4 4 5 6
10 9 9 10 11 13 8 5 6 4 4 -1 -4 5 7 5 11 11 9 14 18 14 13 12 17 17 7 3 5 6 8 7 7 7 7 6 6 4 4 4 4 5 6 6
13 8 12 14 10 12 10 4 -2 -5 -2 5 7 7 5 9 8 11 11 9 8 10 12 16 12 11 13 19 15 5 3 6 5 6 7 6 5 4 3 4 6 6 5 5
7 12 14 10 4 -1 -1 5 9 15 18 18 15 9 18 20 17 15 14 13 12 10 10 13 11 18 14 13 11 14 21 16 5 2 5 6 4 3 4 5 5 4 4 5
8 3 19 32 33 26 24 20 19 15 12 19 17 16 11 12 15 16 16 14 16 15 16 16 15 15 12 19 13 12 12 10 14 20 20 14 8 4 3 6 6 6 7 7
24 20 13 21 22 15 15 23 30 27 16 15 14 11 11 15 16 16 15 13 11 13 15 15 15 15 15 14 14 19 15 14 15 12 10 12 15 21 22 17 12 9 9 9
18 7 7 2 7 9 19 8 14 21 22 21 19 19 19 19 13 9 10 13 14 14 14 16 18 15 13 13 14 14 16 18 13 15 16 13 10 10 14 20 19 14 12 11
9 7 7 9 9 11 5 19 10 9 15 19 19 18 14 9 14 14 13 14 16 17 17 18 18 19 18 15 15 18 16 16 18 16 15 16 13 11 11 15 17 15 12 10
8 5 4 7 7 10 17 21 21 10 6 11 11 10 11 13 9 8 9 12 14 15 15 16 17 17 19 20 18 18 18 16 17 18 17 17 16 13 11 11 13 15 15 15
9 9 8 13 21 24 25 25 25 18 12 8 8 8 8 6 7 9 10 10 13 16 14 15 15 15 16 17 19 18 19 17 17 17 17 17 18 17 16 15 12 10 10 11
9 8 18 13 5 10 14 15 21 21 14 13 12 10 9 11 11 12 12 13 14 15 14 13 15 15 14 15 16 19 19 18 18 18 20 20 19 19 19 18 17 17 17 17
Height
2988 2987 2985 2983 2977 2974 2970 2970 2971 2973 2969 2969 2965 2961 2959 2959 2961 2962 2964 2969 2973 2974 2980 2991 2998 3007 3015 3022 3028 3034 3040 3046 3052 3057 3062 3067 3072 3076 3081 3084 3088 3092 3096 3099
2988 2986 2986 2985 2983 2980 2977 2977 2976 2974 2972 2969 2966 2962 2961 2963 2962 2964 2964 2966 2969 2973 2975 2983 2987 2997 3006 3014 3021 3026 3032 3037 3042 3048 3053 3058 3063 3067 3071 3075 3078 3083 3087 3090
2988 2986 2985 2987 2984 2983 2982 2981 2979 2975 2975 2972 2969 2967 2966 2965 2964 2965 2965 2967 2970 2971 2975 2979 2984 2992 2997 3004 3011 3015 3022 3027 3032 3038 3043 3049 3053 3058 3062 3067 3070 3074 3078 3082
2989 2985 2993 2993 2989 2986 2984 2983 2982 2980 2977 2974 2972 2969 2966 2964 2963 2964 2966 2967 2970 2972 2975 2978 2982 2986 2990 2996 2998 3008 3015 3018 3022 3029 3033 3039 3044 3049 3053 3058 3062 3065 3069 3072
2995 2992 2994 2991 2989 2986 2984 2984 2980 2979 2978 2974 2972 2970 2968 2966 2965 2965 2965 2966 2968 2971 2973 2976 2980 2981 2989 2988 2993 2998 3005 3011 3017 3021 3025 3031 3035 3040 3045 3049 3053 3056 3060 3063
2998 2997 2998 2993 2989 2986 2984 2983 2980 2978 2976 2975 2974 2972 2971 2970 2968 2968 2968 2969 2968 2968 2970 2973 2977 2979 2981 2985 2989 2992 2999 3005 3010 3014 3019 3023 3028 3032 3037 3041 3045 3048 3051 3054
2999 2998 2996 2993 2990 2986 2986 2990 2982 2979 2977 2974 2973 2973 2972 2971 2971 2971 2970 2969 2968 2968 2971 2972 2973 2975 2977 2981 2984 2987 2992 2999 3004 3007 3012 3016 3021 3025 3029 3033 3038 3041 3044 3047
2999 2997 2996 2992 2991 2989 2988 2984 2982 2980 2978 2976 2975 2974 2973 2972 2972 2971 2970 2969 2969 2969 2968 2970 2971 2973 2974 2978 2981 2984 2988 2993 2997 3001 3005 3010 3015 3019 3023 3027 3030 3032 3036 3039
3001 2997 2994 2991 2989 2987 2986 2984 2982 2980 2978 2977 2976 2975 2974 2973 2972 2972 2971 2971 2971 2970 2970 2971 2971 2973 2975 2976 2978 2982 2986 2989 2994 2997 3000 3003 3008 3011 3015 3019 3022 3025 3030 3033
2996 2993 2990 2988 2986 2985 2984 2983 2982 2980 2978 2977 2976 2975 2974 2973 2973 2973 2972 2972 2972 2971 2973 2974 2974 2975 2975 2977 2978 2980 2982 2986 2989 2992 2995 2997 3001 3006 3010 3014 3017 3021 3025 3029
2990 2988 2987 2985 2984 2982 2981 2979 2979 2978 2978 2977 2976 2975 2974 2974 2973 2973 2972 2972 2972 2973 2974 2973 2973 2975 2975 2976 2977 2980 2981 2983 2985 2988 2991 2995 2999 3003 3007 3010 3014 3018 3022 3026
2987 2985 2983 2982 2980 2979 2978 2976 2975 2975 2975 2975 2974 2974 2973 2973 2973 2973 2974 2974 2974 2974 2974 2974 2975 2975 2976 2977 2979 2981 2981 2982 2984 2986 2989 2992 2997 3001 3003 3007 3011 3014 3018 3023
2984 2982 2980 2979 2977 2976 2974 2973 2972 2971 2970 2970 2970 2971 2971 2971 2971 2971 2971 2972 2972 2972 2973 2974 2974 2973 2974 2977 2977 2978 2979 2981 2983 2986 2989 2993 2997 3001 3004 3006 3010 3014 3017 3020
2979 2978 2977 2976 2974 2973 2972 2970 2969 2968 2967 2966 2965 2965 2965 2966 2966 2966 2967 2967 2968 2969 2970 2970 2970 2971 2972 2972 2974 2975 2978 2980 2983 2986 2989 2992 2994 2997 3000 3002 3007 3010 3013 3016
2975 2974 2973 2972 2970 2969 2968 2967 2966 2965 2963 2962 2961 2961 2959 2959 2959 2960 2961 2961 2962 2963 2963 2964 2964 2965 2967 2968 2970 2972 2974 2977 2980 2983 2986 2989 2992 2995 2998 3001 3005 3007 3009 3011
2971 2970 2969 2968 2967 2965 2964 2963 2962 2960 2959 2958 2957 2956 2955 2954 2953 2952 2952 2952 2954 2954 2955 2957 2958 2959 2961 2964 2966 2968 2971 2973 2976 2980 2982 2984 2988 2991 2993 2997 2999 3001 3003 3005
2965 2965 2963 2962 2961 2960 2959 2957 2956 2955 2954 2953 2952 2951 2950 2948 2947 2945 2944 2945 2945 2946 2947 2949 2951 2952 2954 2957 2960 2963 2966 2968 2971 2974 2976 2979 2982 2985 2988 2990 2992 2993 2996 2997
2960 2959 2958 2957 2955 2953 2952 2950 2948 2947 2947 2946 2945 2944 2942 2941 2940 2939 2938 2938 2939 2940 2940 2940 2941 2943 2945 2948 2952 2955 2958 2960 2963 2966 2969 2972 2975 2978 2980 2982 2983 2985 2987 2988
2954 2953 2951 2950 2948 2946 2944 2942 2940 2939 2937 2936 2935 2934 2933 2931 2930 2929 2929 2930 2930 2931 2931 2930 2933 2935 2937 2938 2940 2944 2947 2950 2952 2955 2959 2962 2964 2967 2969 2971 2973 2975 2977 2978
2948 2947 2944 2942 2939 2937 2935 2932 2929 2928 2926 2925 2924 2922 2921 2920 2919 2919 2919 2920 2920 2920 2921 2921 2923 2925 2927 2928 2929 2932 2934 2937 2941 2943 2946 2950 2952 2954 2958 2960 2962 2964 2965 2967
2941 2938 2935 2932 2929 2925 2921 2918 2916 2916 2914 2913 2912 2911 2911 2910 2909 2908 2909 2910 2909 2908 2910 2911 2912 2913 2914 2916 2917 2920 2923 2925 2927 2930 2932 2935 2939 2941 2943 2947 2949 2951 2953 2955
2931 2928 2925 2922 2919 2916 2913 2909 2906 2905 2904 2903 2902 2901 2901 2900 2899 2899 2899 2900 2899 2899 2899 2900 2901 2902 2903 2903 2905 2907 2909 2912 2914 2916 2919 2921 2923 2926 2928 2931 2934 2937 2940 2941
2923 2920 2918 2916 2913 2909 2906 2902 2900 2897 2895 2893 2892 2892 2891 2891 2891 2891 2891 2890 2890 2889 2889 2889 2889 2890 2891 2891 2893 2894 2896 2898 2900 2903 2905 2908 2910 2911 2914 2916 2919 2922 2924 2927
2916 2913 2910 2908 2905 2902 2899 2895 2893 2890 2888 2886 2885 2884 2884 2884 2884 2883 2883 2882 2881 2880 2879 2878 2878 2879 2879 2880 2882 2884 2885 2886 2888 2890 2892 2894 2897 2899 2901 2904 2906 2909 2912 2914
2909 2906 2902 2899 2896 2892 2888 2886 2883 2882 2881 2880 2879 2878 2878 2877 2877 2876 2875 2874 2873 2872 2871 2870 2870 2870 2870 2871 2872 2872 2873 2875 2876 2878 2880 2882 2884 2887 2889 2892 2894 2897 2900 2902
2900 2898 2895 2891 2886 2882 2879 2876 2874 2873 2872 2872 2871 2871 2870 2870 2869 2869 2868 2867 2866 2865 2864 2863 2863 2863 2863 2863 2863 2863 2863 2865 2866 2867 2869 2871 2873 2876 2878 2881 2884 2886 2889 2891
2892 2889 2885 2882 2879 2875 2872 2869 2866 2865 2864 2864 2863 2863 2863 2862 2861 2861 2860 2859 2858 2858 2857 2857 2857 2856 2856 2856 2856 2855 2855 2856 2857 2859 2861 2862 2864 2866 2868 2870 2873 2875 2877 2880